Погода в Кизиловом

Россия / Республика Крым     44°49′18″N   34°02′39″E
темп.,
°C
ветер,
м/с
пор.,
м/с
влажн.,
%
обл.,
%
осадки,
мм/ч
давл.,
гПа
погр.,
м
19 сентября, вс
вс1900:00+14юв33875 0.1 101048
03:00+15ююв3282100 0.1 101030
06:00+15ююв3391100 0.9 101039
09:00+18ююз2687100 2.7 1010435
12:00+21зюз356543 2.4 1009799
15:00+23з66467 2.8 10101549
18:00+18з346366 0.0 1011416
21:00+14ююв22880 0.0 101221
20 сентября, пн
пн2000:00+14ююв22811 0.0 101219
03:00+13ююв228013 0.0 101320
06:00+13юв22770 0.0 101219
09:00+20юз36480 0.0 1012729
12:00+23зюз68380 0.0 10122063
15:00+23зюз694418 0.0 10121743
18:00+20з34625 0.0 1012223
21:00+16всв117893 0.0 101411
21 сентября, вт
вт2100:00+14вюв228873 0.3 101319
03:00+13св2490100 1.3 1015203
06:00+12ссв249597 0.8 1015174
09:00+12св139078 0.9 1016207
12:00+17ссз335734 0.0 10171069
15:00+18сз554971 0.0 10161372
18:00+13сз446258 0.0 1018863
21:00+9в127251 0.0 102039
22 сентября, ср
ср2200:00+9всв116433 0.0 102031
03:00+6вюв11753 0.0 102013
06:00+6юв227520 0.0 102021
09:00+11ююз225966 0.0 1019505
12:00+12з4559100 0.1 10181505
15:00+12зсз345273 0.1 10181392
18:00+11сз235885 0.0 1018201
21:00+7в1176100 0.0 101810
23 сентября, чт
чт2300:00+6в1176100 0.0 101612
03:00+7всв1179100 0.0 101516
06:00+6св228975 0.0 101415
09:00+10ссв346599 0.1 1013434
12:00+10ссв4755100 0.1 1013643
15:00+10ссв3658100 0.4 10121111
18:00+10ссв3653100 0.3 1013634
21:00+7ссв116064 0.3 101512